[[{"header":{"parameterUnit":"m.s-1","parameterCategory":1,"la1":30.2991,"la2":30.254,"lo1":-89.0895,"lo2":-89.0444,"dy":0.0017,"dx":0.0017,"nx":28,"ny":28,"refTime":"2023-10-08T21:00:00:Z","depth":0,"parameterNumber":2,"parameterNumberName":"U-component_of_WINDS"},"data":[0,0,0,0,0,0,0,0,0,0,0,0,0,0,0,0,0,0,0,0,0,0,0,0,0,0,0,0,0,0,0,0,0,0,0,0,0,0,0,0,0,0,0,0,0,0,0,0,0,0,0,0,0,0,0,0,0,0,-1.7683,-1.7684,0,-1.7742,-1.7743,-1.7744,-1.7747,-1.7746,-1.7746,-1.7745,-1.7805,-1.7807,-1.7809,0,0,0,0,0,0,0,0,0,0,0,0,0,-1.7573,-1.7575,-1.7683,-1.7684,-1.7685,-1.7742,-1.7743,-1.7744,-1.7747,-1.7746,-1.7745,-1.7745,-1.7804,-1.7806,-1.7809,0,0,0,0,0,0,0,0,0,0,0,0,0,-1.7625,-1.7576,-1.7683,-1.7693,-1.7695,-1.7742,-1.7743,-1.7744,-1.7747,-1.7746,-1.7745,-1.7744,-1.7803,-1.7806,-1.781,-1.785,0,0,-1.782,-1.7821,0,0,0,0,0,0,0,0,-1.7622,-1.7629,-1.7691,-1.7693,-1.7695,-1.7736,-1.7726,-1.778,-1.7748,-1.7727,-1.7745,-1.7744,-1.7783,-1.7788,-1.7801,-1.7853,-1.7856,-1.782,-1.7822,-1.7823,-1.7824,0,0,0,0,0,0,0,-1.7619,-1.7627,-1.7707,-1.7692,-1.7694,-1.7695,-1.7701,-1.7736,-1.776,-1.7729,-1.7729,-1.7736,-1.7783,-1.7798,-1.7802,-1.7856,-1.782,-1.7823,-1.7825,-1.7826,-1.7945,-1.7947,0,0,0,0,0,0,-1.7613,-1.7624,-1.7705,-1.7708,-1.7655,-1.7698,-1.7705,-1.7724,-1.776,-1.7764,-1.7737,-1.7736,-1.7792,-1.7798,-1.7804,-1.7854,-1.7823,-1.7826,-1.7828,-1.7944,-1.7946,-1.7947,0,0,0,0,0,0,-1.7611,-1.762,-1.7702,-1.7666,-1.7677,-1.7701,-1.7722,-1.7726,-1.774,-1.7766,-1.777,-1.7747,-1.7792,-1.78,-1.7839,-1.7857,-1.7828,-1.7831,-1.7943,-1.7945,-1.7946,-1.7955,0,0,0,0,0,0,-1.7608,-1.762,-1.7635,-1.7667,-1.7679,-1.7736,-1.7723,-1.7727,-1.7746,-1.7745,-1.7776,-1.7781,-1.7792,-1.7834,-1.7842,-1.7861,-1.7834,-1.7941,-1.7944,-1.7946,-1.7953,-1.7957,-1.796,0,0,0,0,0,-1.7604,-1.7635,-1.7636,-1.7646,-1.7699,-1.7737,-1.7744,-1.7756,-1.7747,-1.7763,-1.778,-1.778,-1.7853,-1.7838,-1.7847,-1.7867,-1.794,-1.7943,-1.7946,-1.7952,-1.7956,-1.796,0,0,0,0,0,0,-1.7605,-1.7639,-1.7641,-1.7683,-1.7707,-1.7738,-1.7758,-1.776,-1.7787,-1.7785,-1.7799,-1.7806,-1.7845,-1.786,-1.7842,-1.7908,-1.7896,-1.7901,-1.7897,-1.7902,-1.7905,-1.79,-1.7836,0,0,0,0,0,-1.761,-1.7638,-1.7667,-1.7702,-1.7714,-1.7734,-1.7751,-1.7758,-1.7784,-1.7794,-1.7813,-1.7838,-1.7866,-1.7885,-1.7913,-1.7956,-1.7962,-1.7974,-1.7977,-1.798,-1.7983,-1.8007,-1.8013,-1.7956,-1.7956,-1.7956,0,0,-1.7621,-1.7643,-1.766,-1.7702,-1.7722,-1.7751,-1.7742,-1.7773,-1.7795,-1.7798,-1.7837,-1.7852,-1.788,-1.7921,-1.794,-1.7935,-1.8001,-1.7983,-1.7985,-1.7987,-1.8011,-1.8016,-1.8021,-1.7958,-1.7957,-1.7957,0,0,-1.7655,-1.7675,-1.7706,-1.7726,-1.7756,-1.777,-1.7777,-1.7807,-1.7818,-1.7857,-1.786,-1.7886,-1.7935,-1.7955,-1.7972,-1.8015,-1.8016,-1.8023,-1.8041,-1.8064,-1.8068,-1.8072,-1.8087,-1.8093,-1.8027,-1.8027,-1.8027,0,-1.7665,-1.7709,-1.7722,-1.7753,-1.7772,-1.7777,-1.7808,-1.7827,-1.7864,-1.7877,-1.787,-1.7932,-1.7952,-1.7998,-1.8008,-1.8022,-1.8031,-1.8019,-1.8067,-1.8071,-1.8075,-1.8089,-1.8095,-1.8028,-1.8028,-1.8028,-1.8028,0,-1.7719,-1.775,-1.7771,-1.7807,-1.7828,-1.7859,-1.7877,-1.7897,-1.7903,-1.7917,-1.7957,-1.798,-1.8013,-1.8025,-1.8031,-1.8072,-1.8068,-1.8064,-1.8051,-1.8081,-1.8095,-1.81,-1.8029,-1.8029,-1.8028,-1.8028,0,0,-1.7755,-1.7799,-1.7807,-1.7823,-1.7857,-1.7881,-1.7912,-1.7945,-1.7961,-1.7987,-1.8014,-1.8056,-1.8052,-1.8071,-1.808,-1.81,-1.8133,-1.8094,-1.8095,-1.81,-1.818,-1.8182,-1.8188,-1.8134,-1.8135,-1.8136,-1.8177,0,-1.7793,-1.7849,-1.7862,-1.7911,-1.7939,-1.7945,-1.7973,-1.7996,-1.801,-1.8036,-1.8052,-1.8081,-1.8075,-1.8087,-1.8107,-1.8124,-1.8149,-1.8122,-1.8158,-1.816,-1.8151,-1.8196,-1.8198,-1.8236,-1.8183,-1.8184,-1.8184,0,-1.7844,-1.7872,-1.7923,-1.7954,-1.7966,-1.799,-1.8021,-1.8046,-1.8073,-1.8082,-1.8104,-1.811,-1.8143,-1.813,-1.8176,-1.8157,-1.8173,-1.8184,-1.8186,-1.8189,-1.8173,-1.82,-1.8248,-1.8254,-1.8193,-1.8192,-1.8192,0,-1.7865,-1.7915,-1.7952,-1.7966,-1.8003,-1.802,-1.8036,-1.8062,-1.8081,-1.8108,-1.812,-1.8151,-1.8168,-1.8191,-1.8206,-1.8195,-1.8251,-1.8238,-1.8259,-1.8259,-1.827,-1.8269,-1.8321,-1.8281,-1.8281,-1.8281,-1.8281,0,-1.7906,-1.7937,-1.7962,-1.7984,-1.802,-1.8035,-1.8069,-1.8085,-1.8108,-1.8134,-1.8142,-1.8166,-1.8184,-1.8211,-1.8222,-1.8259,-1.8266,-1.8274,-1.8277,-1.8273,-1.8272,-1.8283,-1.8281,-1.8282,-1.8282,-1.8282,-1.8281,0,-1.7934,-1.7952,-1.7993,-1.8025,-1.8034,-1.8058,-1.8085,-1.8107,-1.8122,-1.8155,-1.8163,-1.8187,-1.8218,-1.8236,-1.8276,-1.8284,-1.8324,-1.8325,-1.8315,-1.8316,-1.8335,-1.8333,-1.8396,-1.8405,-1.836,-1.836,-1.836,0,-1.7959,-1.7983,-1.8017,-1.8035,-1.8052,-1.8081,-1.81,-1.8116,-1.8136,-1.8169,-1.8188,-1.822,-1.8247,-1.8298,-1.8318,-1.8349,-1.8351,-1.8371,-1.8355,-1.8351,-1.8351,-1.8349,-1.8352,-1.8373,-1.8374,-1.8374,-1.8374,0,-1.8,-1.8008,-1.8036,-1.8067,-1.8091,-1.8116,-1.8141,-1.8155,-1.8176,-1.8198,-1.8231,-1.8252,-1.8293,-1.8325,-1.8357,-1.8374,-1.8378,-1.8379,-1.8386,-1.8382,-1.8375,-1.8379,-1.8322,-1.8378,-1.8377,-1.8377,-1.8377,-1.8377,-1.8027,-1.8049,-1.8077,-1.8108,-1.8129,-1.8152,-1.8175,-1.8193,-1.8221,-1.8255,-1.8263,-1.8298,-1.8325,-1.8369,-1.8387,-1.8414,-1.841,-1.8419,-1.8422,-1.8424,-1.8424,-1.8371,-1.842,-1.842,-1.842,-1.842,-1.842,0,-1.8069,-1.8087,-1.8116,-1.8151,-1.8175,-1.8177,-1.8205,-1.8226,-1.8256,-1.8281,-1.8308,-1.8346,-1.8377,-1.8401,-1.8433,-1.845,-1.8453,-1.8458,-1.8457,-1.846,-1.8426,-1.8417,-1.8456,-1.8456,-1.8456,-1.8456,-1.8456,-1.8455,-1.8093,-1.813,-1.8142,-1.8189,-1.8207,-1.8242,-1.8258,-1.8279,-1.83,-1.8342,-1.8368,-1.8383,-1.8408,-1.8442,-1.8471,-1.8477,-1.8488,-1.8493,-1.8499,-1.8467,-1.8463,-1.8459,-1.8451,-1.8496,-1.8496,-1.8532,-1.8532,-1.8532]},{"header":{"parameterUnit":"m.s-1","parameterCategory":1,"la1":30.2991,"la2":30.254,"lo1":-89.0895,"lo2":-89.0444,"dy":0.0017,"dx":0.0017,"nx":28,"ny":28,"refTime":"2023-10-08T21:00:00:Z","depth":0,"parameterNumber":3,"parameterNumberName":"V-component_of_WINDS"},"data":[0,0,0,0,0,0,0,0,0,0,0,0,0,0,0,0,0,0,0,0,0,0,0,0,0,0,0,0,0,0,0,0,0,0,0,0,0,0,0,0,0,0,0,0,0,0,0,0,0,0,0,0,0,0,0,0,0,0,-0.4228,-0.4228,0,-0.4234,-0.4234,-0.4234,-0.4212,-0.4211,-0.421,-0.421,-0.4218,-0.4218,-0.4219,0,0,0,0,0,0,0,0,0,0,0,0,0,-0.4198,-0.4199,-0.4228,-0.4228,-0.4228,-0.4234,-0.4234,-0.4234,-0.4212,-0.4211,-0.421,-0.4209,-0.4217,-0.4218,-0.4219,0,0,0,0,0,0,0,0,0,0,0,0,0,-0.4209,-0.4199,-0.4228,-0.4218,-0.4217,-0.4234,-0.4234,-0.4234,-0.4212,-0.4211,-0.421,-0.4209,-0.4217,-0.4218,-0.4219,-0.4248,0,0,-0.4223,-0.4224,0,0,0,0,0,0,0,0,-0.4208,-0.421,-0.4219,-0.4218,-0.4217,-0.4221,-0.4227,-0.4239,-0.4212,-0.4214,-0.421,-0.4208,-0.422,-0.4221,-0.4224,-0.4248,-0.4248,-0.4223,-0.4224,-0.4225,-0.4225,0,0,0,0,0,0,0,-0.4207,-0.4209,-0.423,-0.4219,-0.4218,-0.4213,-0.4213,-0.4229,-0.4222,-0.4214,-0.4212,-0.4213,-0.4219,-0.4223,-0.4224,-0.4248,-0.4223,-0.4224,-0.4225,-0.4226,-0.4295,-0.4297,0,0,0,0,0,0,-0.4208,-0.4209,-0.423,-0.4231,-0.421,-0.4214,-0.4215,-0.4221,-0.4222,-0.4221,-0.4214,-0.4212,-0.4221,-0.4223,-0.4224,-0.4257,-0.4225,-0.4226,-0.4227,-0.4294,-0.4296,-0.4297,0,0,0,0,0,0,-0.4207,-0.421,-0.423,-0.4219,-0.4221,-0.4216,-0.4223,-0.4222,-0.4225,-0.4222,-0.4221,-0.4219,-0.422,-0.4222,-0.4242,-0.4257,-0.4226,-0.4228,-0.4293,-0.4295,-0.4296,-0.4323,0,0,0,0,0,0,-0.4206,-0.421,-0.422,-0.422,-0.4222,-0.4247,-0.4224,-0.4222,-0.4227,-0.4225,-0.4227,-0.4226,-0.422,-0.424,-0.4243,-0.4258,-0.4229,-0.4292,-0.4294,-0.4296,-0.4321,-0.4325,-0.4329,0,0,0,0,0,-0.4205,-0.4228,-0.4221,-0.4223,-0.4235,-0.4248,-0.4249,-0.4241,-0.4229,-0.4239,-0.4237,-0.4226,-0.4255,-0.4242,-0.4245,-0.4261,-0.4291,-0.4293,-0.4296,-0.4319,-0.4324,-0.4329,0,0,0,0,0,0,-0.423,-0.4227,-0.422,-0.4242,-0.4245,-0.4244,-0.4257,-0.4247,-0.4255,-0.4252,-0.4242,-0.4243,-0.4264,-0.4265,-0.425,-0.4288,-0.4271,-0.4274,-0.4287,-0.4292,-0.4297,-0.4296,-0.423,0,0,0,0,0,-0.4238,-0.4249,-0.4246,-0.4266,-0.4268,-0.4262,-0.4268,-0.4261,-0.4264,-0.4266,-0.4265,-0.4269,-0.4279,-0.4286,-0.4295,-0.4321,-0.4321,-0.4333,-0.4337,-0.4341,-0.4344,-0.4357,-0.4363,-0.4305,-0.4305,-0.4305,0,0,-0.4255,-0.4255,-0.4262,-0.4271,-0.4273,-0.4284,-0.4264,-0.4277,-0.4285,-0.4268,-0.4286,-0.4286,-0.4289,-0.4312,-0.4322,-0.4313,-0.436,-0.4344,-0.4347,-0.4348,-0.436,-0.4366,-0.4371,-0.4307,-0.4306,-0.4306,0,0,-0.4292,-0.4293,-0.4309,-0.4311,-0.4314,-0.431,-0.4314,-0.4314,-0.4313,-0.4331,-0.4318,-0.4329,-0.4346,-0.4349,-0.4353,-0.4391,-0.4381,-0.4394,-0.4417,-0.443,-0.4434,-0.4438,-0.4452,-0.4457,-0.4397,-0.4397,-0.4397,0,-0.4312,-0.4329,-0.4319,-0.4333,-0.4337,-0.4322,-0.4339,-0.4342,-0.4348,-0.4351,-0.4341,-0.4362,-0.4364,-0.4387,-0.4396,-0.44,-0.4405,-0.4394,-0.4434,-0.4438,-0.4442,-0.4455,-0.446,-0.4399,-0.4399,-0.4399,-0.4398,0,-0.4354,-0.4365,-0.4379,-0.4384,-0.439,-0.4405,-0.4399,-0.4406,-0.4399,-0.4397,-0.4415,-0.4416,-0.4425,-0.443,-0.4424,-0.4453,-0.4447,-0.4436,-0.4418,-0.4449,-0.4461,-0.4466,-0.4401,-0.4401,-0.44,-0.44,0,0,-0.4406,-0.4406,-0.4411,-0.4413,-0.4415,-0.4424,-0.4439,-0.4447,-0.4453,-0.4458,-0.4471,-0.4486,-0.4475,-0.448,-0.4474,-0.4486,-0.4515,-0.4473,-0.4473,-0.4481,-0.4547,-0.4555,-0.4561,-0.4509,-0.451,-0.4511,-0.4547,0,-0.4441,-0.4466,-0.4458,-0.4483,-0.4494,-0.448,-0.4493,-0.4496,-0.4494,-0.4503,-0.4501,-0.4512,-0.4497,-0.45,-0.4511,-0.4509,-0.4529,-0.4507,-0.4521,-0.4521,-0.452,-0.4567,-0.4575,-0.4609,-0.4551,-0.4552,-0.4552,0,-0.4486,-0.4491,-0.4518,-0.4518,-0.4522,-0.4534,-0.4541,-0.4549,-0.4553,-0.455,-0.4555,-0.4547,-0.4562,-0.4545,-0.4566,-0.4551,-0.4556,-0.4556,-0.4558,-0.4558,-0.4538,-0.4569,-0.462,-0.4625,-0.456,-0.4559,-0.4558,0,-0.452,-0.4535,-0.4552,-0.4555,-0.4555,-0.4564,-0.4565,-0.4567,-0.4573,-0.4579,-0.4582,-0.4591,-0.4595,-0.4602,-0.4596,-0.4584,-0.4618,-0.46,-0.4617,-0.4617,-0.4625,-0.4624,-0.4677,-0.4629,-0.4629,-0.4629,-0.4628,0,-0.456,-0.4577,-0.4568,-0.4579,-0.4597,-0.4588,-0.4607,-0.4606,-0.4608,-0.4619,-0.4607,-0.4618,-0.461,-0.462,-0.4616,-0.4634,-0.4636,-0.4635,-0.4633,-0.4635,-0.4636,-0.4638,-0.4636,-0.463,-0.463,-0.4629,-0.4629,0,-0.4602,-0.4597,-0.4615,-0.4614,-0.4614,-0.4628,-0.4627,-0.4637,-0.4634,-0.4648,-0.4651,-0.4647,-0.4658,-0.4653,-0.4665,-0.4662,-0.4685,-0.4681,-0.4684,-0.4683,-0.47,-0.4698,-0.4756,-0.4763,-0.4711,-0.4711,-0.4712,0,-0.4628,-0.464,-0.464,-0.4646,-0.4648,-0.4658,-0.4663,-0.4656,-0.4662,-0.4666,-0.4676,-0.4686,-0.4694,-0.4712,-0.4711,-0.472,-0.4715,-0.4735,-0.4717,-0.4718,-0.4715,-0.4715,-0.4716,-0.4739,-0.4739,-0.474,-0.474,0,-0.4674,-0.4671,-0.4678,-0.4686,-0.4692,-0.4698,-0.4702,-0.4708,-0.47,-0.4708,-0.4719,-0.4725,-0.4737,-0.4747,-0.4755,-0.4756,-0.4747,-0.4746,-0.475,-0.4753,-0.4754,-0.4753,-0.4694,-0.4745,-0.4744,-0.4744,-0.4744,-0.4744,-0.4708,-0.4718,-0.472,-0.4729,-0.4732,-0.4736,-0.4746,-0.4744,-0.4753,-0.4761,-0.4757,-0.4769,-0.4773,-0.4782,-0.4785,-0.4795,-0.4788,-0.4794,-0.4796,-0.4797,-0.4799,-0.4752,-0.4797,-0.4797,-0.4797,-0.4797,-0.4796,0,-0.4753,-0.4754,-0.4762,-0.4768,-0.4776,-0.4766,-0.4771,-0.4778,-0.4789,-0.4793,-0.48,-0.4813,-0.4823,-0.4822,-0.4832,-0.484,-0.4836,-0.4843,-0.4842,-0.4842,-0.4806,-0.4801,-0.4846,-0.4846,-0.4846,-0.4846,-0.4846,-0.4846,-0.4777,-0.4794,-0.4791,-0.4809,-0.481,-0.4822,-0.4825,-0.4829,-0.4832,-0.4847,-0.4855,-0.4854,-0.4856,-0.4865,-0.4874,-0.4874,-0.4878,-0.4886,-0.4884,-0.485,-0.4845,-0.484,-0.4835,-0.4887,-0.4887,-0.4919,-0.492,-0.492]}]]